,

(GMT )
Al Udeid

Weather History for KQIR - October, 2012

Change the Weather History Date:

Wednesday, October 17, 2012

  Actual Average Record
Temperature  
Mean Temperature 84 °F -  
Max Temperature 96 °F - - ()
Min Temperature 72 °F - - ()
Cooling Degree Days 19    
Growing Degree Days 34 (Base 50)    
Moisture  
Dew Point 67 °F    
Average Humidity 57    
Maximum Humidity 82    
Minimum Humidity 26    
Precipitation  
Precipitation 0.00 in - - ()
Sea Level Pressure  
Sea Level Pressure 29.92 in    
Wind  
Wind Speed 4 mph ()    
Max Wind Speed 9 mph    
Max Gust Speed -    
Visibility 6.2 miles    
Events      
Averages and records for this station are not official NWS values.
T = Trace of Precipitation, MM = Missing Value Source: Averaged Metar Reports

Daily Weather History Graph

Daily Weather History Graph

Search for Another Location

Airport or City:

Trip Planner

Search our weather history database for the weather conditions in past years. The results will help you decide how hot, cold, wet, or windy it might be!

Date:

Astronomy

Oct. 17, 2012 Rise Set
Actual Time 5:34 AM +03 5:05 PM +03
Civil Twilight 5:10 AM +03 5:28 PM +03
Nautical Twilight 4:44 AM +03 5:55 PM +03
Astronomical Twilight 4:17 AM +03 6:21 PM +03
Moon 7:24 AM +03 (10/17) 6:38 PM +03 (10/17)
Length of Visible Light 12h 17m
Length of Day
11h 31m
Waxing Crescent, 5% of the Moon is Illuminated
Oct 17
Waxing Crescent
Oct 22
First Quarter
Oct 29
Full
Nov 7
Last Quarter
Nov 14
New

Hourly Weather History & Observations

Time (+03) Temp. Heat Index Dew Point Humidity Pressure Visibility Wind Dir Wind Speed Gust Speed Precip Events Conditions
12:55 AM 77.2 °F - 69.6 °F 77% 29.92 in 6.2 mi NW 5.8 mph - N/A   Clear
1:55 AM 75.2 °F - 68.4 °F 79% 29.91 in 6.2 mi West 3.5 mph - N/A   Clear
2:55 AM 74.1 °F - 68.2 °F 82% 29.91 in 6.2 mi West 3.5 mph - N/A   Clear
3:55 AM 73.6 °F - 67.8 °F 82% 29.92 in 6.2 mi WNW 4.6 mph - N/A   Clear
4:55 AM 72.7 °F - 66.9 °F 82% 29.93 in 6.2 mi West 3.5 mph - N/A   Clear
5:55 AM 73.0 °F - 67.3 °F 82% 29.94 in 6.2 mi WNW 6.9 mph - N/A   Clear
6:55 AM 77.4 °F - 70.2 °F 78% 29.96 in 6.2 mi WNW 5.8 mph - N/A   Clear
7:55 AM 83.5 °F 89.1 °F 72.5 °F 69% 29.97 in 6.2 mi NW 6.9 mph - N/A   Clear
8:55 AM 86.7 °F 94.1 °F 73.4 °F 64% 29.98 in 6.2 mi Calm Calm - N/A   Clear
9:55 AM 90.0 °F 96.9 °F 71.6 °F 55% 29.97 in 6.2 mi Calm Calm - N/A   Clear
10:55 AM 91.6 °F 95.2 °F 67.5 °F 45% 29.94 in 6.2 mi Calm Calm - N/A   Clear
11:55 AM 93.6 °F 95.0 °F 64.0 °F 37% 29.92 in 6.2 mi Variable 3.5 mph - N/A   Clear
12:55 PM 94.6 °F 95.1 °F 61.3 °F 33% 29.90 in 6.2 mi Calm Calm - N/A   Clear
1:43 PM 96.8 °F 95.8 °F 57.2 °F 27% 29.88 in 6.2 mi Variable 4.6 mph - N/A   Light Drizzle
1:53 PM 96.8 °F 95.8 °F 57.2 °F 27% 29.88 in 6.2 mi Variable 5.8 mph - N/A   Clear
1:55 PM 96.3 °F 95.1 °F 57.4 °F 27% 29.88 in 6.2 mi Variable 4.6 mph - 0.00 in   Clear
2:55 PM 96.1 °F 94.5 °F 55.8 °F 26% 29.88 in 6.2 mi NNW 4.6 mph - N/A   Clear
3:55 PM 93.2 °F 98.8 °F 69.4 °F 46% 29.88 in 6.2 mi East 9.2 mph - N/A   Clear
4:55 PM 90.9 °F 94.8 °F 68.2 °F 47% 29.88 in 6.2 mi ESE 9.2 mph - N/A   Clear
5:55 PM 89.6 °F 92.2 °F 66.0 °F 46% 29.90 in 6.2 mi ESE 5.8 mph - N/A   Clear
6:55 PM 87.6 °F 90.8 °F 67.3 °F 51% 29.91 in 6.2 mi East 5.8 mph - N/A   Clear
7:55 PM 85.8 °F 90.1 °F 69.6 °F 58% 29.93 in 6.2 mi ESE 4.6 mph - N/A   Clear
8:55 PM 84.6 °F 88.8 °F 70.0 °F 61% 29.93 in 6.2 mi East 3.5 mph - N/A   Clear
9:55 PM 83.5 °F 87.7 °F 70.3 °F 64% 29.93 in 6.2 mi Calm Calm - N/A   Clear
10:55 PM 81.7 °F 84.9 °F 69.1 °F 65% 29.92 in 6.2 mi Calm Calm - N/A   Clear
11:55 PM 78.4 °F - 68.0 °F 70% 29.91 in 6.2 mi Calm Calm - N/A   Clear